Preview of NWS' New Version of Forecast
This preview is not operational and should not be used for support decisions.

Regional Weather Roundup (RWR)

Issued by National Weather Service (NWS)

                            
000
ASUS43 KMKX 190500
RWRWI 

WISCONSIN REGIONAL WEATHER ROUNDUP
NATIONAL WEATHER SERVICE MILWAUKEE/SULLIVAN WI
1200 AM CDT MON AUG 19 2019

NOTE: "FAIR" INDICATES FEW OR NO CLOUDS BELOW 12,000 FEET WITH NO
SIGNIFICANT WEATHER AND/OR OBSTRUCTIONS TO VISIBILITY.

WIZ001-002-006>008-014>016-023>028-190600-
NORTHWEST WISCONSIN
  
CITY           SKY/WX    TMP DP  RH WIND       PRES   REMARKS
SUPERIOR ARPT  FAIR      55  48  77 CALM      29.89R                  
ASHLAND        FAIR      52  47  83 SW8       29.89R                  
HAYWARD        FAIR      50  46  86 CALM      29.93R                  
SIREN          FAIR      52  48  88 CALM      29.92S                  
CUMBERLAND     FAIR      50  50 100 W3        29.93R                  
RICE LAKE      FAIR      53  38  58 CALM      29.94R                  
CHETEK         FAIR      54  54 100 CALM      29.92S                  
LADYSMITH      FAIR      57  52  82 CALM      29.93S                  
EAU CLAIRE     NOT AVBL                                               
MENOMONIE      FAIR      54  52  94 CALM      29.92S                  
NEW RICHMOND   FAIR      53  51  92 CALM      29.93S                  
OSCEOLA        FAIR      54  54 100 CALM      29.96R                  
$$
 
WIZ003>005-009-010-017-018-190600-
NORTH CENTRAL WISCONSIN
  
CITY           SKY/WX    TMP DP  RH WIND       PRES   REMARKS
MANITOWISH WTR FAIR      51  51 100 CALM      29.91R                  
ARBOR VITAE    FAIR      55  52  90 CALM      29.91R                  
WOODRUFF       FAIR      55  52  90 CALM      29.91R                  
RHINELANDER    FAIR      53  50  89 W6        29.92R                  
EAGLE RIVER    FAIR      51  51 100 NW6       29.90R                  
LAND O LAKES   FAIR      54  50  86 NW3       29.92R                  
PHILLIPS       FAIR      54  53  96 NW3       29.91R                  
TOMAHAWK       FAIR      50  50  97 CALM      29.92R                  
MEDFORD        FAIR      55  50  84 W5        29.92R                  
MERRILL        FAIR      55  55 100 CALM      29.92R                  
$$
 
WIZ029-030-035-036-043>047-190600-
CENTRAL WISCONSIN
  
CITY           SKY/WX    TMP DP  RH WIND       PRES   REMARKS
WAUSAU         FAIR      60  54  80 NW5       29.91R                  
MOSINEE        FAIR      57  55  94 W6        29.92R                  
MARSHFIELD     FAIR      56  54  93 W5        29.92R                  
STEVENS POINT  FAIR      55  55 100 CALM      29.92R                  
WAUPACA        FAIR      64  60  86 W3        29.91R                  
WAUTOMA        FAIR      61  59  93 CALM      29.92R                  
WISC RAPIDS    FAIR      58  55  90 CALM      29.93R                  
CAMP DOUGLAS   FAIR      57  57 100 W3        29.92R FOG              
$$
 
WIZ011>013-019>022-031-037>040-048>050-190600-
NORTHEAST WISCONSIN
  
CITY           SKY/WX    TMP DP  RH WIND       PRES   REMARKS
ANTIGO         FAIR      53  53 100 W6        29.92R                  
SHAWANO        FAIR      64  59  85 W3        29.89R                  
OCONTO         FAIR      58  58  97 CALM      29.87R                  
STURGEON BAY   FAIR      66  59  78 NW3       29.88R                  
GREEN BAY      FAIR      63  61  93 W6        29.89R                  
MANITOWOC      FAIR      67  63  87 W5        29.89R                  
APPLETON       NOT AVBL                                               
CLINTONVILLE   FAIR      62  56  81 W6        29.89R                  
OSHKOSH        MOCLDY    67  61  81 W5        29.90R                  
$$
 
WIZ032>034-041-042-053>061-190600-
SOUTHWEST WISCONSIN
  
CITY           SKY/WX    TMP DP  RH WIND       PRES   REMARKS
LA CROSSE      FAIR      64  59  83 CALM      29.93R                  
SPARTA         FAIR      54  53  97 CALM      29.93S                  
VIROQUA        FAIR      63  62  96 NW5       29.94S                  
BOSCOBEL       FOG       63  61  93 CALM      29.93R VSB 3/4          
PRAIRIE DU CHI FAIR      64  63  94 CALM      29.92R                  
PLATTEVILLE    FAIR      67  67 100 SW3       29.94R                  
$$

WIZ056-057-062-063-064-067-068-190600-
SOUTH CENTRAL WISCONSIN
  
CITY           SKY/WX    TMP DP  RH WIND       PRES   REMARKS
REEDSBURG      CLOUDY    63  63 100 CALM      29.93R                  
BARABOO/DELLS  FAIR      62  61  94 CALM      29.92S                  
LONE ROCK      NOT AVBL                                               
MINERAL POINT    N/A     68  68 100 CALM      29.93S                  
MADISON        FAIR      66  63  90 CALM      29.91R                  
MIDDLETON      FAIR      64  28  26 CALM      29.92R                  
WATERTOWN      FAIR      63  63 100 CALM      29.91R                  
MONROE         FAIR      68  65  90 SW6       29.93S                  
JANESVILLE     FAIR      68  68 100 CALM      29.92S                  
$$
 
WIZ051-052-058>065-066-070>072-190600-
SOUTHEAST WISCONSIN
  
CITY           SKY/WX    TMP DP  RH WIND       PRES   REMARKS
MILWAUKEE      FAIR      70  64  81 SW5       29.92R                  
WAUKESHA       FAIR      64  61  88 S5        29.93S                  
MILWAUKEE/TIMM FAIR      64  59  82 CALM      29.92R                  
RACINE         FAIR      69  63  81 SW5       29.94R                  
KENOSHA        FAIR      66  64  93 SW5       29.93R                  
FOND DU LAC    FAIR      68  62  81 W6        29.91R                  
SHEBOYGAN      FAIR      63  60  90 CALM      29.90R                  
WEST BEND      FAIR      63  61  94 CALM      29.91S                  
JUNEAU         MOCLDY    64  63  95 CALM      29.92S                  
$$

LSZ147-162-190600-
LAKE SUPERIOR
  
STATION/POSITION TIME  TEMP    WIND        PRES    WAVE
                       AIR SEA DIR/SP/G            HT/PER
                 (UTC) (F)     (DEG/KT/KT) (MB)    (FT/S)
W MID LAKE BUOY  0350   65 63  260/ 10/ 12 1009.0R   1/ 3
DEVILS ISLAND    0400   68     250/ 16/ 18 1010.4R
SAXON HARBOR     0440   58     200/  8/ 10 1011.2R
$$
 
LMZ867-665-643>646-190600-
LAKE MICHIGAN
  
STATION/POSITION TIME  TEMP    WIND        PRES    WAVE
                       AIR SEA DIR/SP/G            HT/PER
                 (UTC) (F)     (DEG/KT/KT) (MB)    (FT/S)
S GREEN BAY BUOY 0430   74 69  270/  8/ 10 1011.7R
N MID LAKE BUOY  0440   69     320/  8/ 12 1011.4R
NORTHPORT PIER   0440   65     260/  1/  2 1011.2R
KEWAUNEE LAKESHO 0430   67     310/  1/  3 1010.9R
SHEBOYGAN LAKESH 0400   69     250/  8/  9 1011.8R
PORT WASHINGTON  0440   70     260/  3/  5 1013.5R
S MID LAKE BUOY  0440   73     270/  8/ 10 1013.2R
KENOSHA   LAKESH 0400   72     260/  6/  7 1012.5
$$

TC  - TEMPERATURE IN CELSIUS
VSB - VISIBILITY IN STATUTE MILES
WCI - WIND CHILL INDEX
HX  - HEAT INDEX